Location: *
(51.2167°N, 10.0667°E)
Time: 13:46:54
(UTC+00:00)

SeaSat 1 - Pass Details

Date: 12 December 2019
Orbit: 744 x 748 km, 108.0° (Epoch: 26 January)

Event Time Altitude Azimuth Distance (km) Brightness Sun altitude
Exits shadow 17:16:07 22° 29° (NNE) 1,612 3.8 -18.2°
Drops below altitude 10° 17:19:21 10° 349° (N) 2,274 4.9 -18.7°
Sets 17:22:03 0° 335° (NNW) 3,202 5.9 -19.1°
